{"data":{"norad_id":66193,"epoch":"2026-05-25T00:43:57.277056Z","epoch_age_seconds":73151,"freshness":"FRESH","line1":"1 66193U 25243S   26145.03052404  .00022830  00000+0  77985-3 0  9990","line2":"2 66193  53.1584 250.5328 0000999  62.0661 298.0440 15.30229756 32345","mean_motion":15.30229756,"eccentricity":9.99e-5,"inclination_deg":53.1584,"raan_deg":250.5328,"arg_perigee_deg":62.0661,"mean_anomaly_deg":298.044,"bstar":0.00077985,"rev_number":3234,"period_min":94.103515786031,"perigee_km":474.44158381043,"apogee_km":475.81086580275,"semimajor_km":6853.2632248066,"source":"CELESTRAK","updated_at":"2026-05-25T13:38:21.121846Z"}}